Location: Newark
(34.0131°N, 4.3314°W)
Time: 17:50:20
(UTC+00:00)

A-11 Canister half - Pass Details

Date: 27 October 2019
Orbit: 1514 x 1686 km, 47.2° (Epoch: 18 November)

Event Time Altitude Azimuth Distance (km) Brightness Sun altitude
Rises 20:34:24 0° 169° (SSE) 4,920 - -38.7°
Reaches altitude 10° 20:40:36 10° 141° (SE) 3,940 - -40.0°
Maximum altitude 20:43:52 12° 121° (ESE) 3,783 - -40.6°
Drops below altitude 10° 20:47:06 10° 102° (ESE) 3,934 - -41.3°
Sets 20:53:12 0° 74° (ENE) 4,903 - -42.5°
